{"data":{"norad_id":62908,"epoch":"2026-05-24T23:31:58.420128Z","epoch_age_seconds":73752,"freshness":"FRESH","line1":"1 62908U 25027B   26144.98053727  .00213843  00000+0  16245-2 0  9999","line2":"2 62908  43.0008 247.5439 0001236  31.1360 328.9581 15.70883824 75152","mean_motion":15.70883824,"eccentricity":0.0001236,"inclination_deg":43.0008,"raan_deg":247.5439,"arg_perigee_deg":31.136,"mean_anomaly_deg":328.9581,"bstar":0.0016245,"rev_number":7515,"period_min":91.668141080814,"perigee_km":355.53742224538,"apogee_km":357.20219232814,"semimajor_km":6734.5068072868,"source":"CELESTRAK","updated_at":"2026-05-25T13:38:19.817084Z"}}